| time (UTC) | temp F | wind direction | speed MPH | gust MPH | rain 1hr in | rain 24hr in | rain mn in | humidity % | barometer mb |
| 20260506004134 | 69 | 337 | 0.0 | 0.0 | 0.00 | 0.31 | 0.00 | 39 | 1010.7 |
| 20260506003633 | 69 | 305 | 0.0 | 0.0 | 0.00 | 0.31 | 0.00 | 38 | 1010.7 |
| 20260506003132 | 70 | 319 | 0.0 | 0.0 | 0.00 | 0.31 | 0.00 | 36 | 1010.7 |
| 20260506002633 | 70 | 323 | 0.0 | 0.0 | 0.00 | 0.31 | 0.00 | 37 | 1010.6 |
| 20260506002143 | 71 | 49 | 0.0 | 0.0 | 0.00 | 0.31 | 0.00 | 37 | 1010.7 |
| 20260506002133 | 70 | 78 | 0.0 | 0.0 | 0.00 | 0.31 | 0.00 | 37 | 1010.7 |
| 20260506001130 | 71 | 286 | 0.0 | 0.0 | 0.00 | 0.31 | 0.00 | 38 | 1010.6 |
| 20260506000630 | 71 | 58 | 0.0 | 0.0 | 0.00 | 0.31 | 0.00 | 38 | 1010.7 |
| 20260506000133 | 71 | 85 | 0.0 | 0.0 | 0.00 | 0.31 | 0.00 | 40 | 1010.6 |
| 20260505235630 | 71 | 42 | 0.0 | 0.0 | 0.00 | 0.31 | 0.00 | 41 | 1010.6 |
| 20260505235130 | 71 | 69 | 0.0 | 0.0 | 0.00 | 0.31 | 0.00 | 38 | 1010.8 |
| 20260505234631 | 70 | 111 | 0.0 | 0.0 | 0.00 | 0.31 | 0.00 | 41 | 1010.7 |
| 20260505234142 | 71 | 111 | 0.0 | 0.0 | 0.00 | 0.31 | 0.00 | 40 | 1010.8 |
| 20260505234131 | 71 | 123 | 0.0 | 0.0 | 0.00 | 0.31 | 0.00 | 40 | 1010.7 |
| 20260505233131 | 71 | 107 | 0.0 | 0.0 | 0.00 | 0.31 | 0.00 | 40 | 1010.8 |
| 20260505232630 | 71 | 65 | 0.0 | 0.0 | 0.00 | 0.31 | 0.00 | 41 | 1010.8 |
| 20260505232141 | 71 | 158 | 0.0 | 0.0 | 0.00 | 0.31 | 0.00 | 39 | 1010.8 |
| 20260505232130 | 71 | 0 | 0.0 | 0.0 | 0.00 | 0.31 | 0.00 | 39 | 1010.8 |
| 20260505231131 | 71 | 138 | 0.0 | 0.0 | 0.00 | 0.31 | 0.00 | 41 | 1010.8 |
| 20260505230642 | 71 | 165 | 0.0 | 1.0 | 0.00 | 0.31 | 0.00 | 42 | 1010.8 |
| 20260505230630 | 71 | 264 | 0.0 | 0.0 | 0.00 | 0.31 | 0.00 | 40 | 1010.8 |
| 20260505225630 | 70 | 159 | 0.0 | 1.0 | 0.00 | 0.31 | 0.00 | 42 | 1010.9 |
| 20260505225129 | 70 | 159 | 0.0 | 0.0 | 0.00 | 0.31 | 0.00 | 43 | 1010.9 |
| 20260505224630 | 70 | 166 | 0.0 | 0.0 | 0.00 | 0.31 | 0.00 | 42 | 1011.0 |
| 20260505224130 | 70 | 147 | 0.0 | 0.0 | 0.00 | 0.31 | 0.00 | 42 | 1011.0 |
| 20260505223629 | 69 | 299 | 0.0 | 0.0 | 0.00 | 0.31 | 0.00 | 43 | 1011.2 |
| 20260505223129 | 69 | 313 | 0.0 | 0.0 | 0.00 | 0.31 | 0.00 | 44 | 1011.2 |
| 20260505222628 | 69 | 295 | 0.0 | 0.0 | 0.00 | 0.35 | 0.00 | 43 | 1011.2 |
| 20260505222130 | 69 | 293 | 0.0 | 0.0 | 0.00 | 0.38 | 0.00 | 46 | 1011.3 |
| 20260505221628 | 68 | 196 | 0.0 | 0.0 | 0.00 | 0.45 | 0.00 | 45 | 1011.3 |
| 20260505221127 | 68 | 169 | 0.0 | 0.0 | 0.00 | 0.45 | 0.00 | 48 | 1011.4 |
| 20260505220628 | 68 | 209 | 0.0 | 0.0 | 0.00 | 0.45 | 0.00 | 47 | 1011.4 |
| 20260505220130 | 68 | 195 | 0.0 | 1.0 | 0.00 | 0.45 | 0.00 | 44 | 1011.5 |
| 20260505215629 | 69 | 202 | 0.0 | 1.0 | 0.00 | 0.47 | 0.00 | 44 | 1011.6 |
| 20260505215128 | 69 | 200 | 0.0 | 1.0 | 0.00 | 0.49 | 0.00 | 45 | 1011.6 |
| 20260505214639 | 69 | 83 | 0.0 | 2.0 | 0.00 | 0.49 | 0.00 | 46 | 1011.7 |
| 20260505214628 | 69 | 120 | 0.0 | 2.0 | 0.00 | 0.49 | 0.00 | 45 | 1011.6 |
| 20260505214254 | 69 | 158 | 0.0 | 1.0 | 0.00 | 0.49 | 0.00 | 45 | 1011.7 |
| 20260505213126 | 69 | 80 | 0.0 | 1.0 | 0.00 | 0.49 | 0.00 | 46 | 1011.7 |
| 20260505212627 | 68 | 140 | 0.0 | 1.0 | 0.00 | 0.49 | 0.00 | 48 | 1011.7 |
| 20260505212128 | 68 | 90 | 0.0 | 2.0 | 0.00 | 0.49 | 0.00 | 47 | 1011.7 |
| 20260505211626 | 68 | 206 | 0.0 | 2.0 | 0.00 | 0.49 | 0.00 | 49 | 1011.7 |
| 20260505211127 | 67 | 128 | 0.0 | 0.0 | 0.00 | 0.49 | 0.00 | 49 | 1011.7 |
| 20260505210628 | 67 | 152 | 0.0 | 0.0 | 0.00 | 0.49 | 0.00 | 50 | 1011.9 |
| 20260505210137 | 66 | 227 | 0.0 | 0.0 | 0.00 | 0.49 | 0.00 | 52 | 1011.9 |
| 20260505210125 | 67 | 159 | 0.0 | 0.0 | 0.00 | 0.49 | 0.00 | 52 | 1011.9 |
| 20260505205128 | 65 | 257 | 0.0 | 0.0 | 0.00 | 0.49 | 0.00 | 54 | 1011.9 |
| 20260505204628 | 64 | 257 | 0.0 | 0.0 | 0.00 | 0.49 | 0.00 | 54 | 1012.0 |
| 20260505204126 | 64 | 224 | 0.0 | 0.0 | 0.00 | 0.49 | 0.00 | 54 | 1012.0 |
| 20260505203626 | 64 | 358 | 0.0 | 0.0 | 0.00 | 0.49 | 0.00 | 54 | 1012.1 |
| 20260505203127 | 64 | 358 | 0.0 | 0.0 | 0.00 | 0.49 | 0.00 | 55 | 1012.2 |
| 20260505202624 | 65 | 27 | 0.0 | 0.0 | 0.00 | 0.49 | 0.00 | 55 | 1012.2 |
| 20260505202124 | 65 | 25 | 0.0 | 0.0 | 0.00 | 0.49 | 0.00 | 55 | 1012.1 |
| 20260505201625 | 65 | 0 | 0.0 | 0.0 | 0.00 | 0.49 | 0.00 | 55 | 1012.2 |
| 20260505201133 | 64 | 240 | 0.0 | 0.0 | 0.00 | 0.49 | 0.00 | 53 | 1012.2 |
| 20260505201124 | 64 | 0 | 0.0 | 0.0 | 0.00 | 0.49 | 0.00 | 53 | 1012.1 |
| 20260505200739 | 64 | 240 | 0.0 | 0.0 | 0.00 | 0.49 | 0.00 | 53 | 1012.2 |
| 20260505195624 | 63 | 244 | 0.0 | 0.0 | 0.00 | 0.49 | 0.00 | 55 | 1012.2 |
| 20260505195123 | 63 | 245 | 0.0 | 0.0 | 0.00 | 0.49 | 0.00 | 55 | 1012.4 |
| 20260505194625 | 63 | 0.0 | 0.0 | 0.00 | 0.49 | 0.00 | 59 | 1012.3 | |
| 20260505194132 | 62 | 221 | 0.0 | 0.0 | 0.00 | 0.49 | 0.00 | 62 | 1012.3 |
| 20260505194124 | 62 | 0.0 | 0.0 | 0.00 | 0.49 | 0.00 | 62 | 1012.3 | |
| 20260505193121 | 61 | 221 | 0.0 | 0.0 | 0.00 | 0.49 | 0.00 | 62 | 1012.4 |
| 20260505192625 | 61 | 0.0 | 0.0 | 0.00 | 0.49 | 0.00 | 62 | 1012.3 | |
| 20260505192123 | 61 | 233 | 0.0 | 0.0 | 0.00 | 0.49 | 0.00 | 62 | 1012.4 |
| 20260505191622 | 61 | 233 | 0.0 | 5.0 | 0.00 | 0.49 | 0.00 | 60 | 1012.3 |
| 20260505191121 | 62 | 257 | 0.0 | 5.0 | 0.00 | 0.49 | 0.00 | 60 | 1012.4 |
| 20260505190620 | 62 | 228 | 0.0 | 5.0 | 0.00 | 0.49 | 0.00 | 65 | 1012.3 |
| 20260505190121 | 61 | 159 | 0.0 | 4.0 | 0.00 | 0.49 | 0.00 | 66 | 1012.3 |
| 20260505185621 | 60 | 252 | 0.0 | 4.0 | 0.00 | 0.49 | 0.00 | 67 | 1012.3 |
| 20260505185120 | 59 | 240 | 1.0 | 4.0 | 0.00 | 0.49 | 0.00 | 66 | 1012.3 |
| 20260505184619 | 58 | 243 | 0.0 | 0.0 | 0.00 | 0.49 | 0.00 | 71 | 1012.3 |
| 20260505184120 | 58 | 274 | 0.0 | 4.0 | 0.00 | 0.49 | 0.00 | 68 | 1012.4 |
| 20260505183619 | 58 | 250 | 1.0 | 5.0 | 0.00 | 0.49 | 0.00 | 69 | 1012.3 |
| 20260505183121 | 58 | 231 | 0.0 | 5.0 | 0.00 | 0.49 | 0.00 | 68 | 1012.2 |
| 20260505182619 | 58 | 238 | 0.0 | 5.0 | 0.00 | 0.49 | 0.00 | 68 | 1012.3 |
| 20260505182119 | 57 | 254 | 1.0 | 7.0 | 0.00 | 0.49 | 0.00 | 70 | 1012.3 |
| 20260505181621 | 57 | 231 | 2.0 | 7.0 | 0.00 | 0.49 | 0.00 | 68 | 1012.3 |
| 20260505181120 | 57 | 217 | 0.0 | 6.0 | 0.00 | 0.49 | 0.00 | 70 | 1012.2 |
| 20260505180620 | 57 | 251 | 0.0 | 6.0 | 0.00 | 0.49 | 0.00 | 69 | 1012.2 |
| 20260505180133 | 57 | 264 | 1.0 | 10.0 | 0.00 | 0.49 | 0.00 | 74 | 1012.2 |
| 20260505180121 | 58 | 233 | 0.0 | 7.0 | 0.00 | 0.49 | 0.00 | 70 | 1012.2 |
| 20260505175620 | 58 | 240 | 2.0 | 7.0 | 0.00 | 0.49 | 0.00 | 72 | 1012.2 |
| 20260505174619 | 56 | 251 | 3.0 | 10.0 | 0.00 | 0.49 | 0.00 | 74 | 1012.0 |
| 20260505174120 | 55 | 248 | 0.0 | 10.0 | 0.00 | 0.49 | 0.00 | 75 | 1012.1 |
| 20260505173618 | 54 | 237 | 3.0 | 10.0 | 0.00 | 0.49 | 0.00 | 78 | 1012.0 |
| 20260505173118 | 54 | 228 | 3.0 | 9.0 | 0.00 | 0.49 | 0.00 | 77 | 1011.9 |
| 20260505172619 | 53 | 240 | 2.0 | 9.0 | 0.00 | 0.49 | 0.00 | 78 | 1011.9 |
| 20260505172118 | 53 | 220 | 5.0 | 10.0 | 0.00 | 0.49 | 0.00 | 79 | 1011.9 |
| 20260505171617 | 52 | 255 | 3.0 | 10.0 | 0.00 | 0.49 | 0.00 | 79 | 1011.9 |
| 20260505171119 | 52 | 234 | 2.0 | 9.0 | 0.00 | 0.49 | 0.00 | 79 | 1012.0 |
| 20260505170617 | 52 | 0 | 4.0 | 9.0 | 0.00 | 0.49 | 0.00 | 78 | 1012.0 |
| 20260505170118 | 52 | 275 | 0.0 | 10.0 | 0.00 | 0.49 | 0.00 | 78 | 1012.0 |
| 20260505165617 | 52 | 231 | 4.0 | 12.0 | 0.00 | 0.49 | 0.00 | 79 | 1011.9 |
| 20260505165116 | 52 | 238 | 3.0 | 12.0 | 0.00 | 0.49 | 0.00 | 81 | 1011.9 |
| 20260505164627 | 51 | 245 | 4.0 | 10.0 | 0.00 | 0.49 | 0.00 | 82 | 1011.7 |
| 20260505164617 | 52 | 259 | 1.0 | 10.0 | 0.00 | 0.49 | 0.00 | 79 | 1011.9 |
| 20260505164245 | 51 | 259 | 4.0 | 10.0 | 0.00 | 0.49 | 0.00 | 82 | 1011.9 |
| 20260505163118 | 51 | 281 | 4.0 | 12.0 | 0.00 | 0.49 | 0.00 | 83 | 1011.9 |
| 20260505162617 | 50 | 274 | 3.0 | 13.0 | 0.00 | 0.49 | 0.00 | 84 | 1011.7 |
| 20260505162116 | 50 | 230 | 5.0 | 13.0 | 0.00 | 0.49 | 0.00 | 84 | 1011.7 |
| 20260505161615 | 50 | 241 | 3.0 | 10.0 | 0.00 | 0.49 | 0.00 | 84 | 1011.7 |
| 20260505161116 | 50 | 266 | 5.0 | 12.0 | 0.00 | 0.49 | 0.00 | 85 | 1011.6 |
| 20260505160616 | 49 | 238 | 2.0 | 12.0 | 0.00 | 0.49 | 0.00 | 85 | 1011.6 |
| 20260505160116 | 49 | 257 | 2.0 | 11.0 | 0.00 | 0.49 | 0.00 | 86 | 1011.5 |
| 20260505153118 | 47 | 233 | 0.0 | 11.0 | 0.00 | 0.49 | 0.00 | 88 | 1011.3 |
| 20260505152615 | 47 | 250 | 2.0 | 13.0 | 0.00 | 0.49 | 0.00 | 88 | 1011.2 |
| 20260505152116 | 47 | 244 | 9.0 | 13.0 | 0.00 | 0.49 | 0.00 | 88 | 1011.2 |
| 20260505151616 | 46 | 238 | 2.0 | 11.0 | 0.00 | 0.49 | 0.00 | 88 | 1011.2 |
| 20260505151116 | 46 | 264 | 2.0 | 12.0 | 0.00 | 0.49 | 0.00 | 88 | 1011.2 |
| 20260505150615 | 46 | 241 | 4.0 | 12.0 | 0.00 | 0.49 | 0.00 | 88 | 1011.2 |
| 20260505150116 | 46 | 274 | 5.0 | 12.0 | 0.00 | 0.49 | 0.00 | 88 | 1011.0 |
| 20260505140618 | 45 | 268 | 5.0 | 14.0 | 0.00 | 0.49 | 0.00 | 89 | 1010.3 |
| 20260505140114 | 45 | 250 | 8.0 | 13.0 | 0.00 | 0.49 | 0.00 | 89 | 1010.3 |
| 20260505130112 | 44 | 261 | 8.0 | 16.0 | 0.00 | 0.49 | 0.00 | 88 | 1009.6 |
| 20260505124622 | 44 | 230 | 8.0 | 16.0 | 0.00 | 0.49 | 0.00 | 88 | 1009.6 |
| 20260505124611 | 44 | 231 | 8.0 | 16.0 | 0.00 | 0.49 | 0.00 | 88 | 1009.6 |
| 20260505123609 | 44 | 264 | 10.0 | 16.0 | 0.00 | 0.49 | 0.00 | 88 | 1009.5 |
| 20260505123121 | 44 | 252 | 8.0 | 13.0 | 0.00 | 0.49 | 0.00 | 89 | 1009.5 |
| 20260505123110 | 44 | 261 | 10.0 | 16.0 | 0.00 | 0.49 | 0.00 | 89 | 1009.6 |
| 20260505122113 | 44 | 247 | 7.0 | 12.0 | 0.00 | 0.49 | 0.00 | 89 | 1009.6 |
| 20260505121613 | 44 | 252 | 6.0 | 12.0 | 0.00 | 0.49 | 0.00 | 89 | 1009.6 |
| 20260505121110 | 44 | 258 | 8.0 | 12.0 | 0.00 | 0.49 | 0.00 | 89 | 1009.6 |
| 20260505120610 | 44 | 247 | 6.0 | 14.0 | 0.00 | 0.49 | 0.00 | 89 | 1009.6 |
| 20260505120112 | 44 | 252 | 9.0 | 15.0 | 0.00 | 0.49 | 0.00 | 89 | 1009.6 |
| 20260505115611 | 44 | 238 | 9.0 | 16.0 | 0.00 | 0.49 | 0.00 | 89 | 1009.5 |
| 20260505115110 | 44 | 258 | 9.0 | 16.0 | 0.00 | 0.49 | 0.00 | 89 | 1009.5 |
| 20260505114610 | 44 | 252 | 5.0 | 11.0 | 0.00 | 0.49 | 0.00 | 89 | 1009.4 |
| 20260505114112 | 43 | 252 | 5.0 | 17.0 | 0.00 | 0.49 | 0.00 | 89 | 1009.5 |
| 20260505113609 | 43 | 247 | 9.0 | 17.0 | 0.00 | 0.49 | 0.00 | 89 | 1009.4 |
| 20260505113110 | 43 | 259 | 10.0 | 15.0 | 0.00 | 0.49 | 0.00 | 89 | 1009.4 |
| 20260505112625 | 44 | 261 | 7.0 | 16.0 | 0.00 | 0.49 | 0.00 | 89 | 1009.6 |
| 20260505112608 | 43 | 264 | 9.0 | 17.0 | 0.00 | 0.49 | 0.00 | 89 | 1009.4 |
| 20260505112110 | 44 | 244 | 11.0 | 17.0 | 0.00 | 0.49 | 0.00 | 89 | 1009.4 |
| 20260505111737 | 44 | 279 | 10.0 | 16.0 | 0.00 | 0.49 | 0.00 | 89 | 1009.4 |
| 20260505110619 | 43 | 274 | 6.0 | 14.0 | 0.00 | 0.49 | 0.00 | 89 | 1009.6 |
| 20260505110609 | 44 | 261 | 7.0 | 14.0 | 0.00 | 0.49 | 0.00 | 89 | 1009.5 |
| 20260505102108 | 43 | 231 | 9.0 | 14.0 | 0.00 | 0.49 | 0.00 | 88 | 1009.8 |
| 20260505101607 | 43 | 254 | 9.0 | 15.0 | 0.00 | 0.49 | 0.00 | 88 | 1010.0 |
| 20260505101107 | 43 | 257 | 9.0 | 17.0 | 0.00 | 0.49 | 0.00 | 88 | 1009.9 |
| 20260505100607 | 43 | 259 | 11.0 | 17.0 | 0.00 | 0.49 | 0.00 | 88 | 1010.0 |
| 20260505100108 | 43 | 217 | 9.0 | 16.0 | 0.00 | 0.49 | 0.00 | 88 | 1009.8 |
| 20260505095608 | 43 | 252 | 10.0 | 16.0 | 0.00 | 0.49 | 0.00 | 88 | 1009.9 |
| 20260505095108 | 43 | 244 | 7.0 | 16.0 | 0.00 | 0.49 | 0.00 | 88 | 1009.8 |
| 20260505094608 | 43 | 255 | 8.0 | 13.0 | 0.00 | 0.49 | 0.00 | 88 | 1009.9 |
| 20260505094109 | 43 | 258 | 8.0 | 14.0 | 0.00 | 0.49 | 0.00 | 88 | 1009.9 |
| 20260505093606 | 43 | 252 | 9.0 | 15.0 | 0.00 | 0.49 | 0.00 | 88 | 1009.8 |
| 20260505093109 | 43 | 250 | 11.0 | 19.0 | 0.00 | 0.49 | 0.00 | 88 | 1009.9 |
| 20260505092606 | 43 | 252 | 13.0 | 19.0 | 0.00 | 0.49 | 0.00 | 88 | 1009.9 |
| 20260505092106 | 43 | 275 | 11.0 | 17.0 | 0.00 | 0.49 | 0.00 | 88 | 1009.9 |
| 20260505091606 | 43 | 248 | 11.0 | 18.0 | 0.00 | 0.49 | 0.00 | 88 | 1009.8 |
| 20260505091117 | 42 | 244 | 11.0 | 18.0 | 0.00 | 0.49 | 0.00 | 88 | 1009.8 |
| 20260505091106 | 43 | 269 | 11.0 | 18.0 | 0.00 | 0.49 | 0.00 | 88 | 1009.6 |
| 20260505090722 | 43 | 251 | 10.0 | 15.0 | 0.00 | 0.49 | 0.00 | 88 | 1010.1 |
| 20260505090105 | 43 | 275 | 13.0 | 18.0 | 0.00 | 0.49 | 0.00 | 88 | 1010.0 |
| 20260505085106 | 43 | 271 | 9.0 | 17.0 | 0.00 | 0.49 | 0.00 | 88 | 1010.1 |
| 20260505084604 | 43 | 275 | 9.0 | 18.0 | 0.00 | 0.49 | 0.00 | 88 | 1010.1 |
| 20260505084104 | 43 | 252 | 10.0 | 18.0 | 0.00 | 0.49 | 0.00 | 89 | 1010.1 |
| 20260505083605 | 43 | 241 | 13.0 | 17.0 | 0.00 | 0.49 | 0.00 | 88 | 1010.3 |
| 20260505083104 | 43 | 262 | 12.0 | 17.0 | 0.00 | 0.49 | 0.00 | 88 | 1010.3 |
| 20260505082605 | 42 | 258 | 12.0 | 17.0 | 0.00 | 0.49 | 0.00 | 88 | 1010.3 |
| 20260505082104 | 42 | 251 | 8.0 | 13.0 | 0.00 | 0.49 | 0.00 | 88 | 1010.5 |
| 20260505081606 | 42 | 241 | 4.0 | 12.0 | 0.00 | 0.49 | 0.00 | 88 | 1010.6 |
| 20260505081106 | 42 | 265 | 4.0 | 11.0 | 0.00 | 0.49 | 0.00 | 88 | 1010.5 |
| 20260505080605 | 43 | 240 | 6.0 | 13.0 | 0.00 | 0.49 | 0.00 | 88 | 1010.6 |
| 20260505080104 | 43 | 238 | 6.0 | 13.0 | 0.00 | 0.49 | 0.00 | 88 | 1010.7 |
| 20260505075603 | 43 | 250 | 8.0 | 12.0 | 0.00 | 0.49 | 0.00 | 88 | 1010.7 |
| 20260505075105 | 43 | 250 | 5.0 | 13.0 | 0.00 | 0.49 | 0.00 | 88 | 1010.7 |
| 20260505074604 | 43 | 240 | 9.0 | 13.0 | 0.00 | 0.49 | 0.00 | 88 | 1010.6 |
| 20260505074104 | 43 | 252 | 7.0 | 13.0 | 0.00 | 0.49 | 0.00 | 87 | 1010.7 |
| 20260505073605 | 43 | 231 | 9.0 | 13.0 | 0.00 | 0.49 | 0.00 | 87 | 1010.8 |
| 20260505073104 | 43 | 271 | 0.0 | 7.0 | 0.00 | 0.49 | 0.00 | 87 | 1010.9 |
| 20260505072603 | 44 | 283 | 0.0 | 14.0 | 0.00 | 0.49 | 0.00 | 87 | 1010.7 |
| 20260505072105 | 44 | 252 | 6.0 | 17.0 | 0.00 | 0.49 | 0.00 | 86 | 1010.9 |
| 20260505071603 | 44 | 243 | 13.0 | 17.0 | 0.00 | 0.49 | 0.00 | 86 | 1010.6 |
| 20260505071105 | 44 | 0 | 9.0 | 17.0 | 0.00 | 0.49 | 0.00 | 86 | 1010.3 |
| 20260505070604 | 44 | 252 | 9.0 | 16.0 | 0.00 | 0.49 | 0.00 | 87 | 1010.2 |
| 20260505070104 | 44 | 264 | 9.0 | 15.0 | 0.00 | 0.49 | 0.00 | 87 | 1010.1 |
| 20260505065603 | 44 | 240 | 8.0 | 15.0 | 0.00 | 0.49 | 0.49 | 87 | 1010.2 |
| 20260505065104 | 44 | 268 | 4.0 | 11.0 | 0.00 | 0.49 | 0.49 | 87 | 1010.2 |
| 20260505064602 | 44 | 265 | 2.0 | 15.0 | 0.00 | 0.49 | 0.49 | 87 | 1010.3 |
| 20260505064102 | 44 | 275 | 6.0 | 18.0 | 0.00 | 0.49 | 0.49 | 87 | 1010.2 |
| 20260505063604 | 44 | 269 | 11.0 | 18.0 | 0.01 | 0.49 | 0.49 | 87 | 1009.8 |
| 20260505063103 | 44 | 271 | 10.0 | 20.0 | 0.01 | 0.49 | 0.49 | 87 | 1009.6 |
| 20260505062601 | 44 | 274 | 13.0 | 20.0 | 0.01 | 0.49 | 0.49 | 87 | 1009.5 |
| 20260505062102 | 44 | 234 | 8.0 | 20.0 | 0.01 | 0.49 | 0.49 | 87 | 1009.5 |
| 20260505061610 | 44 | 233 | 13.0 | 22.0 | 0.02 | 0.49 | 0.49 | 87 | 1009.5 |
| 20260505061602 | 44 | 271 | 12.0 | 22.0 | 0.02 | 0.49 | 0.49 | 87 | 1009.5 |
| 20260505060601 | 44 | 231 | 12.0 | 20.0 | 0.02 | 0.49 | 0.49 | 87 | 1009.4 |
| 20260505060101 | 44 | 243 | 13.0 | 22.0 | 0.02 | 0.49 | 0.49 | 87 | 1009.5 |
| 20260505055600 | 44 | 269 | 12.0 | 23.0 | 0.02 | 0.49 | 0.49 | 87 | 1009.6 |
| 20260505055102 | 44 | 251 | 17.0 | 23.0 | 0.03 | 0.49 | 0.49 | 88 | 1009.8 |
| 20260505054602 | 44 | 279 | 14.0 | 22.0 | 0.04 | 0.49 | 0.49 | 88 | 1009.9 |
| 20260505054113 | 44 | 250 | 13.0 | 22.0 | 0.03 | 0.48 | 0.48 | 88 | 1010.0 |
| 20260505054101 | 44 | 241 | 15.0 | 22.0 | 0.04 | 0.49 | 0.49 | 88 | 1009.8 |
| 20260505053727 | 44 | 274 | 15.0 | 26.0 | 0.03 | 0.48 | 0.48 | 88 | 1010.1 |
| 20260505052601 | 44 | 264 | 16.0 | 26.0 | 0.04 | 0.48 | 0.48 | 88 | 1010.2 |
| 20260505052059 | 45 | 243 | 18.0 | 26.0 | 0.04 | 0.48 | 0.48 | 88 | 1010.3 |
| 20260505051600 | 45 | 254 | 17.0 | 24.0 | 0.03 | 0.47 | 0.47 | 88 | 1010.2 |
| 20260505051101 | 45 | 264 | 13.0 | 23.0 | 0.03 | 0.47 | 0.47 | 88 | 1010.6 |
| 20260505050609 | 45 | 266 | 17.0 | 23.0 | 0.03 | 0.47 | 0.47 | 89 | 1010.3 |
| 20260505050559 | 45 | 248 | 16.0 | 23.0 | 0.03 | 0.47 | 0.47 | 88 | 1010.6 |
| 20260505041059 | 44 | 264 | 11.0 | 20.0 | 0.05 | 0.44 | 0.44 | 88 | 1010.2 |
| 20260505040557 | 44 | 250 | 13.0 | 20.0 | 0.05 | 0.44 | 0.44 | 87 | 1010.1 |
| 20260505040058 | 44 | 231 | 12.0 | 22.0 | 0.05 | 0.44 | 0.44 | 86 | 1010.1 |
| 20260505035559 | 45 | 231 | 12.0 | 22.0 | 0.04 | 0.43 | 0.43 | 86 | 1010.1 |
| 20260505035059 | 45 | 251 | 14.0 | 19.0 | 0.03 | 0.43 | 0.43 | 86 | 1010.1 |
| 20260505034558 | 45 | 265 | 10.0 | 15.0 | 0.02 | 0.41 | 0.41 | 85 | 1010.5 |
| 20260505034100 | 46 | 257 | 11.0 | 17.0 | 0.02 | 0.41 | 0.41 | 85 | 1010.5 |
| 20260505033557 | 46 | 244 | 10.0 | 17.0 | 0.01 | 0.40 | 0.40 | 85 | 1010.2 |
| 20260505033059 | 46 | 259 | 11.0 | 16.0 | 0.01 | 0.40 | 0.40 | 84 | 1010.0 |
| 20260505032556 | 46 | 259 | 7.0 | 14.0 | 0.01 | 0.40 | 0.40 | 84 | 1009.9 |
| 20260505032057 | 46 | 241 | 8.0 | 14.0 | 0.01 | 0.40 | 0.40 | 83 | 1009.9 |
| 20260505031556 | 46 | 248 | 9.0 | 16.0 | 0.01 | 0.39 | 0.39 | 84 | 1009.5 |
| 20260505031057 | 46 | 261 | 11.0 | 16.0 | 0.02 | 0.39 | 0.39 | 84 | 1009.4 |
| 20260505030610 | 46 | 250 | 8.0 | 21.0 | 0.04 | 0.39 | 0.39 | 85 | 1009.2 |
| 20260505030558 | 46 | 227 | 9.0 | 15.0 | 0.03 | 0.39 | 0.39 | 85 | 1009.2 |
| 20260505025556 | 46 | 235 | 13.0 | 24.0 | 0.06 | 0.39 | 0.39 | 85 | 1009.2 |
| 20260505025058 | 46 | 248 | 13.0 | 26.0 | 0.08 | 0.39 | 0.39 | 86 | 1008.8 |
| 20260505024556 | 45 | 237 | 20.0 | 29.0 | 0.09 | 0.39 | 0.39 | 86 | 1008.2 |
| 20260505024055 | 45 | 230 | 21.0 | 29.0 | 0.13 | 0.39 | 0.39 | 87 | 1008.6 |
| 20260505023556 | 44 | 213 | 19.0 | 26.0 | 0.15 | 0.39 | 0.39 | 87 | 1009.1 |
| 20260505023056 | 44 | 228 | 15.0 | 26.0 | 0.17 | 0.39 | 0.39 | 87 | 1009.4 |
| 20260505022556 | 44 | 223 | 14.0 | 26.0 | 0.20 | 0.39 | 0.39 | 87 | 1009.4 |
| 20260505022058 | 44 | 226 | 17.0 | 23.0 | 0.20 | 0.39 | 0.39 | 86 | 1009.3 |
| 20260505021556 | 44 | 221 | 15.0 | 26.0 | 0.20 | 0.39 | 0.39 | 86 | 1009.4 |
| 20260505021056 | 45 | 221 | 15.0 | 26.0 | 0.19 | 0.38 | 0.38 | 85 | 1009.4 |
| 20260505020555 | 45 | 240 | 12.0 | 27.0 | 0.18 | 0.36 | 0.36 | 85 | 1009.6 |
| 20260505020054 | 46 | 230 | 16.0 | 27.0 | 0.18 | 0.35 | 0.35 | 83 | 1009.8 |
| 20260505015556 | 47 | 234 | 12.0 | 18.0 | 0.17 | 0.34 | 0.34 | 82 | 1009.8 |
| 20260505015056 | 48 | 226 | 4.0 | 15.0 | 0.14 | 0.31 | 0.32 | 83 | 1010.1 |
| 20260505014555 | 49 | 234 | 0.0 | 0.0 | 0.13 | 0.30 | 0.30 | 84 | 1010.3 |
| 20260505014104 | 49 | 94 | 0.0 | 6.0 | 0.07 | 0.24 | 0.24 | 82 | 1010.8 |
| 20260505014054 | 49 | 214 | 0.0 | 6.0 | 0.09 | 0.27 | 0.28 | 83 | 1010.7 |
| 20260505013056 | 50 | 118 | 0.0 | 0.0 | 0.05 | 0.22 | 0.23 | 80 | 1010.8 |
| 20260505012554 | 50 | 8 | 0.0 | 0.0 | 0.02 | 0.19 | 0.20 | 81 | 1010.8 |
| 20260505012057 | 50 | 351 | 0.0 | 1.0 | 0.02 | 0.19 | 0.19 | 79 | 1010.5 |
| 20260505011556 | 50 | 262 | 0.0 | 14.0 | 0.02 | 0.19 | 0.19 | 78 | 1009.9 |
| 20260505011054 | 50 | 240 | 2.0 | 14.0 | 0.02 | 0.19 | 0.19 | 78 | 1009.5 |
| 20260505010553 | 50 | 213 | 1.0 | 16.0 | 0.01 | 0.18 | 0.18 | 77 | 1009.2 |
| 20260505010055 | 51 | 227 | 4.0 | 19.0 | 0.00 | 0.17 | 0.17 | 76 | 1009.1 |
| 20260505005553 | 51 | 209 | 12.0 | 24.0 | 0.00 | 0.17 | 0.17 | 75 | 1008.9 |
| 20260505005053 | 51 | 243 | 15.0 | 24.0 | 0.00 | 0.17 | 0.17 | 73 | 1008.6 |